Regional Weather Roundup
Issued by NWS Cleveland, OH

Home | Current Version | Previous Version | Text Only | Print | Product List | Glossary Off
Versions: 1 2 3 4 5 6 7 8 9 10 11 12 13 14 15 16 17 18 19 20 21 22 23 24 25 26 27 28 29 30 31 32 33 34 35 36 37 38 39 40 41 42 43 44 45 46 47 48 49 50

000
ASUS41 KCLE 272002
RWRCLE
OHIO REGIONAL WEATHER ROUNDUP
NATIONAL WEATHER SERVICE CLEVELAND, OH
400 PM EDT SAT AUG 27 2016

NOTE: "FAIR" INDICATES FEW OR NO CLOUDS BELOW 12,000 FEET WITH NO
SIGNIFICANT WEATHER AND/OR OBSTRUCTIONS TO VISIBILITY.

OHZ001>008-015>018-024>027-034-035-043-044-272100-
   NORTHWEST OHIO

CITY           SKY/WX    TMP DP  RH WIND       PRES   REMARKS
DEFIANCE       PTSUNNY   80  69  69 CALM      30.09F
FINDLAY        MOSUNNY   79  69  71 W10       30.09F
TOLEDO EXPRESS CLOUDY    72  72 100 NE8       30.10F
TOLEDO EXEC    LGT RAIN  73  73 100 NE8       30.12F
LIMA           CLOUDY    76  73  91 W7        30.10F
$$

OHZ009>014-019>023-028>033-038-089-272100-
   NORTHEAST OHIO

CITY           SKY/WX    TMP DP  RH WIND       PRES   REMARKS
CLE-HOPKINS    MOSUNNY   93  66  40 SW13      30.12R HX  96
CLE-LAKEFRONT  SUNNY     92  65  40 S10       30.08S HX  94
CUY CO. ARPT   MOSUNNY   90  68  48 S12       30.12S HX  93
LORAIN-ELYRIA  PTSUNNY   87  68  52 S9        30.11R HX  90
ASHTABULA      SUNNY     85  65  51 S7        30.14F
AKRON-CANTON   MOSUNNY   90  64  42 S10       30.12F HX  91
WOOSTER        MOSUNNY   87  71  58 S12       30.13S HX  93
MANSFIELD      MOSUNNY   90  71  53 S12       30.13S HX  96
YOUNGSTOWN     PTSUNNY   86  66  51 S8        30.14F
$$

OHZ042-051>053-060>062-070>072-077>081-272100-
  SOUTHWEST OHIO

CITY           SKY/WX    TMP DP  RH WIND       PRES   REMARKS
CINC-COVINGTON LGT RAIN  75  72  90 N3        30.13F
CINC-LUNKEN    TSTM      73  72  94 NE3       30.13S
HAMILTON       LGT RAIN  76  69  79 NE5       30.12F
DAYTON         TSTM      72  68  87 S7        30.15F
WRIGHT-PAT AFB NOT AVBL
DAYTON GENERAL LGT RAIN  71  66  84 E3        30.14F
WILMINGTON     LGT RAIN  73  70  90 NW18G32   30.15R FOG
$$

OHZ036-037-039>041-045>050-054>059-063>069-073>076-082>088-272100-
  CENTRAL AND SOUTHEAST OHIO

CITY           SKY/WX    TMP DP  RH WIND       PRES   REMARKS
COLUMBUS       MOSUNNY   90  69  50 S9        30.09F HX  94
OSU AIRPORT    MOSUNNY   90  71  53 S9        30.09F HX  96
BOLTON FIELD   MOSUNNY   90  73  58 S6        30.10F HX  98
RICKENBACK AFB SUNNY     91  72  53 S9        30.08F HX  98
NEWARK         MOSUNNY   89  70  53 VRB5      30.10F HX  94
MARION         SUNNY     88  71  57 S10       30.10F HX  94
LANCASTER      MOSUNNY   91  72  53 S9        30.10F HX  98
ZANESVILLE     SUNNY     91  70  49 VRB7      30.11F HX  96
NEW PHILLY     MOSUNNY   92  68  45 S8        30.12F HX  96
$$



USA.gov is the U.S. government's official web portal to all federal, state and local government web resources and services.